Simultaneous Nadir Overpasses (SNOs) Predictions

Prediction of SNOs between GOES-15 and METOP-A Satellite Orbit:

Table of predicted SNOs for the next 14.0 days since TLE Epoch: 4/20/2017
Index Date Time (GOES-15) GOES-15 Lat,Lon METOP-A Lat,Lon Distance(km) Time Diff (sec)
1 04/21/2017 06:25:43 0.06,-135.48 0.45,-133.86 184.65 80
2 04/22/2017 18:44:34 -0.07,-135.50 0.58,-138.42 333.28 80
3 04/23/2017 18:21:14 -0.06,-135.49 -0.54,-133.43 235.46 80
4 04/25/2017 06:40:14 0.07,-135.47 -0.52,-138.02 291.58 80
5 04/26/2017 06:22:14 0.06,-135.46 0.61,-133.03 277.02 80
6 04/27/2017 18:41:05 -0.07,-135.47 0.42,-137.59 242.04 80
7 04/28/2017 18:17:46 -0.07,-135.46 -0.70,-132.60 325.64 80
8 04/30/2017 06:36:46 0.08,-135.41 -0.29,-137.20 203.32 80
9 05/01/2017 06:18:46 0.08,-135.40 0.77,-132.20 364.30 80
10 05/02/2017 18:37:38 -0.09,-135.40 0.20,-136.77 155.62 80
11 05/03/2017 18:14:19 -0.09,-135.38 -0.92,-131.78 411.50 80




NCC Satellite Simultaneous Nadir Overpasses (SNOs) Prediction Service
